Regional Weather Roundup
Issued by NWS

Home | Current Version | Previous Version | Graphics & Text | Print | Product List | Glossary On
Versions: 1 2 3 4 5 6 7 8 9 10 11 12 13 14 15 16 17 18 19 20 21 22 23 24 25 26 27 28 29 30 31 32 33 34 35 36 37 38 39 40 41 42 43 44 45 46 47 48 49 50
000
ASUS45 KBOU 301307
RWRCO

WEATHER ROUNDUP FOR COLORADO
NATIONAL WEATHER SERVICE DENVER/BOULDER CO
600 AM MST FRI JAN 30 2015

NOTE: "FAIR" INDICATES FEW OR NO CLOUDS BELOW 12000 FEET WITH NO
SIGNIFICANT WEATHER AND/OR OBSTRUCTIONS TO VISIBILITY.

COZ001>005-013-030-031-301400-
...NORTHWEST COLORADO...

CITY           SKY/WX    TMP DP  RH WIND       PRES   REMARKS
CRAIG          CLOUDY    33  31  92 NE5       30.23F WCI  29
HAYDEN         CLOUDY    30  27  86 E8        30.24F WCI  23
MEEKER         CLOUDY    33  31  92 CALM      30.21F FOG
MOUNT WERNER   NOT AVBL
STEAMBOAT SPGS CLOUDY    27  24  88 CALM      30.24F
WALDEN         CLOUDY    25  19  80 CALM      30.25S
$$

COZ006>008-011-301400-
...WEST CENTRAL VALLEYS...

CITY           SKY/WX    TMP DP  RH WIND       PRES   REMARKS
GRAND JUNCTION CLOUDY    37  32  82 CALM      30.18F
MONTROSE       CLOUDY    38  30  73 CALM      30.21F
EAGLE          CLOUDY    30  28  93 CALM      30.27F
RIFLE          CLOUDY    32  28  85 SE5       30.21F WCI  27
DELTA          CLOUDY    40  32  72 CALM      30.20F
NUCLA          RAIN      37  36  93 CALM      30.23S VSB 3/4
$$

COZ017>023-064>068-301400-
...SOUTHWEST COLORADO...

CITY           SKY/WX    TMP DP  RH WIND       PRES   REMARKS
DURANGO        LGT SNOW  32  29  88 SE5       30.25F FOG     WCI  27
CORTEZ         CLOUDY    36  32  85 SW5       30.20F
PAGOSA SPRINGS CLOUDY    31  31 100 CALM      30.28S
TELLURIDE      CLOUDY    31  31 100 W3        30.21F
WOLF CREEK PAS NOT AVBL
$$

COZ009-010-012-014-032>034-037-058>063-301400-
...CENTRAL COLORADO...

CITY           SKY/WX    TMP DP  RH WIND       PRES   REMARKS
ASPEN          CLOUDY    25  20  81 S5        30.22F WCI  19
BUENA VISTA    CLOUDY    28  23  81 W3        30.28S
COPPER MTN     CLOUDY    27  19  74 W8        30.29S WCI  18
BERTHOUD PASS  HAZE      18  12  79 NW14      30.30S VSB 1   WCI   4
COTTONWOOD PAS CLOUDY    28  23  80 CALM      30.27F
GUNNISON       CLOUDY    25  21  86 CALM      30.28F
KREMMLING      CLOUDY    23  19  86 CALM      30.29S
LEADVILLE      MOCLDY    17  14  88 NE3       30.26S
MONARCH PASS   FOG       23  21  93 MISG      30.38F VSB<1/4
SALIDA         CLOUDY    32  26  80 NW9       30.34F WCI  24
SUNLIGHT       CLOUDY    28  27  93 CALM      30.27R
WILKERSON PASS SNOW     N/A N/A N/A W7        30.30S VSB 1/2
$$

COZ069>075-301400-
...SAN LUIS VALLEY/SANGRE DE CRISTO MOUNTAINS...

CITY           SKY/WX    TMP DP  RH WIND       PRES   REMARKS
ALAMOSA        LGT SNOW  28  26  92 SE5       30.28F FOG     WCI  23
LA VETA PASS   CLOUDY    21  19  93 MISG      30.27S
SAGUACHE       LGT SNOW  30  30 100 SE8       30.31S WCI  23
$$

COZ035-036-038>040-301400-
...NORTHERN COLORADO FRONT RANGE...

CITY           SKY/WX    TMP DP  RH WIND       PRES   REMARKS
DENVER INTL AP CLOUDY    31  24  75 W8        30.20S WCI  23
DMNS CITY PARK   N/A     34  24  66 E2        30.20S
AURORA         CLOUDY    32  25  74 W3        30.21S
FRONT RANGE AP NOT AVBL
ERIE MUNI ARPT CLOUDY    30  27  89 CALM      30.21F
BOULDER MUN AP CLOUDY    34  25  69 CALM      30.20F
CENTENNIAL     CLOUDY    34  26  72 CALM      30.20S
BROOMFIELD     MOCLDY    34  21  60 NW8       30.20F WCI  27
FORT COLLINS   CLOUDY    28  21  74 CALM      30.22F
LONGMONT       CLOUDY    31  27  84 CALM      30.23F
$$

COZ041-046-047-076>085-087-088-301400-
...PIKES PEAK/PALMER DIVIDE AND SOUTHERN FOOTHILLS...

CITY           SKY/WX    TMP DP  RH WIND       PRES   REMARKS
COLO. SPRINGS  CLOUDY    29  23  78 E3        30.25S
A. F. ACADEMY  MOCLDY    28  21  76 CALM      30.23F
ELLICOTT       MOCLDY   N/A N/A N/A S3        30.23F
FALCON         MOCLDY    27  22  84 CALM      30.24S
FORT CARSON    MOCLDY    26  23  86 N5        30.23F WCI  21
LIMON          CLOUDY    31  23  72 SE14      30.24F WCI  21
MONUMENT HILL  CLOUDY    32  23  69 S13       30.20S WCI  22
TRINIDAD       CLOUDY    38  26  62 SW15G21   30.29R
$$

COZ042>045-048>051-090-091-301400-
...NORTHEAST COLORADO...

CITY           SKY/WX    TMP DP  RH WIND       PRES   REMARKS
GREELEY ARPT   CLOUDY    25  18  74 NW3       30.20F
AKRON          CLOUDY    31  24  75 S12       30.22F WCI  22
BURLINGTON     CLOUDY    33  24  69 S16       30.29F WCI  23
WRAY           CLOUDY    32  25  74 SE3       30.29F
STERLING       CLOUDY    32  25  74 S8        30.23F WCI  25
HOLYOKE        NOT AVBL
FORT MORGAN    CLOUDY    29  23  78 NE6       30.22F WCI  23
$$

COZ086-089-092>099-301400-
...SOUTHEAST COLORADO...

CITY           SKY/WX    TMP DP  RH WIND       PRES   REMARKS
PUEBLO         CLOUDY    32  26  78 CALM      30.26S
LA JUNTA       CLOUDY    44  30  57 S8        30.28F
LAMAR          CLOUDY    41  28  60 S14       30.30F
SPRINGFIELD      N/A     36  28  73 S14       30.34S
$$


USA.gov is the U.S. government's official web portal to all federal, state and local government web resources and services.